Total_Precipitation_Accumulation
0.00 0.00 0.00 0.00 0.00 0.00 0.00 0.00 0.00 0.00 0.00 0.00 0.00 0.00 0.00 0.00 0.00 0.00 0.00 0.00 0.00 0.00 0.00 0.00 0.00 0.00 0.00 0.00 0.01 0.00 0.00 0.09 0.09 0.28 0.85 0.19 0.14 0.09 0.14 0.36 0.50 0.29 0.16 0.25 0.29 0.29 0.18 0.27 0.05 0.12 0.07 0.05 0.01 0.00 0.00 0.01 0.01 0.01 0.05 0.01 0.01 0.01 0.04 0.01 0.02 0.02 0.01 0.03 0.03 0.02 0.02 0.03 0.05 0.05 0.04 0.03 0.05 0.06 0.08 0.15 0.14 0.21 0.19 0.13 0.14 0.15 0.10 0.09 0.10 0.08 0.09 0.09 0.09 0.13 0.12 0.10 0.08
0.00 0.00 0.00 0.00 0.00 0.00 0.00 0.00 0.00 0.00 0.00 0.00 0.00 0.00 0.00 0.00 0.00 0.00 0.00 0.00 0.00 0.00 0.00 0.00 0.00 0.00 0.00 0.00 0.00 0.00 0.00 0.02 0.01 0.06 0.23 0.25 0.14 0.11 0.23 0.35 0.47 0.37 0.23 0.27 0.22 0.19 0.37 0.57 0.14 0.04 0.05 0.21 0.07 0.01 0.01 0.01 0.01 0.01 0.02 0.01 0.01 0.01 0.01 0.03 0.03 0.02 0.01 0.01 0.02 0.03 0.05 0.06 0.08 0.10 0.05 0.08 0.06 0.04 0.05 0.08 0.15 0.10 0.16 0.14 0.09 0.12 0.09 0.08 0.10 0.06 0.08 0.08 0.09 0.11 0.13 0.10 0.13
0.00 0.00 0.00 0.00 0.00 0.00 0.00 0.00 0.00 0.00 0.00 0.00 0.00 0.00 0.00 0.01 0.00 0.00 0.01 0.00 0.00 0.00 0.00 0.00 0.00 0.00 0.00 0.00 0.00 0.00 0.47 0.06 0.02 0.08 0.21 0.25 0.21 0.54 0.33 0.39 0.41 0.23 0.24 0.22 0.21 0.20 0.39 0.40 0.12 0.05 0.04 0.12 0.19 0.10 0.01 0.01 0.01 0.01 0.01 0.02 0.02 0.02 0.01 0.01 0.02 0.04 0.03 0.03 0.04 0.05 0.07 0.09 0.05 0.08 0.10 0.09 0.12 0.03 0.03 0.06 0.11 0.13 0.15 0.10 0.10 0.11 0.11 0.04 0.03 0.03 0.05 0.07 0.06 0.10 0.08 0.05 0.07
0.00 0.00 0.00 0.00 0.00 0.00 0.00 0.00 0.00 0.00 0.00 0.00 0.00 0.00 0.00 0.00 0.00 0.00 0.00 0.00 0.00 0.00 0.00 0.00 0.00 0.00 0.00 0.00 0.01 0.00 0.03 0.04 0.07 0.06 0.24 0.22 0.25 0.29 0.33 0.56 0.20 0.22 0.30 0.18 0.15 0.23 0.45 0.53 0.30 0.09 0.05 0.06 0.06 0.15 0.09 0.01 0.02 0.02 0.02 0.02 0.02 0.02 0.01 0.01 0.02 0.05 0.06 0.05 0.06 0.10 0.09 0.05 0.09 0.08 0.08 0.05 0.03 0.01 0.02 0.06 0.06 0.09 0.10 0.15 0.11 0.07 0.04 0.02 0.02 0.03 0.03 0.02 0.03 0.04 0.04 0.06 0.08
0.00 0.00 0.00 0.00 0.00 0.00 0.00 0.00 0.00 0.00 0.00 0.00 0.00 0.00 0.00 0.00 0.00 0.01 0.00 0.00 0.00 0.00 0.00 0.00 0.00 0.00 0.01 0.03 0.01 0.09 0.20 0.06 0.08 0.05 0.06 0.12 0.23 0.54 0.69 0.39 0.34 0.18 0.22 0.27 0.28 0.41 0.31 0.58 0.45 0.66 0.11 0.03 0.09 0.12 0.25 0.05 0.01 0.02 0.01 0.01 0.02 0.02 0.02 0.01 0.02 0.03 0.07 0.08 0.07 0.07 0.07 0.11 0.13 0.09 0.07 0.05 0.02 0.01 0.02 0.03 0.02 0.07 0.08 0.10 0.10 0.04 0.03 0.01 0.01 0.01 0.03 0.03 0.02 0.05 0.04 0.04 0.05
0.00 0.00 0.00 0.00 0.00 0.00 0.00 0.00 0.00 0.00 0.00 0.00 0.00 0.00 0.00 0.00 0.00 0.00 0.01 0.00 0.00 0.00 0.00 0.00 0.00 0.01 0.02 0.02 0.05 0.10 0.07 0.29 0.05 0.11 0.05 0.22 0.31 0.46 0.70 0.38 0.56 0.19 0.30 0.26 0.26 0.22 0.22 0.28 0.34 0.23 0.14 0.12 0.19 0.19 0.06 0.27 0.02 0.02 0.02 0.02 0.02 0.02 0.02 0.01 0.01 0.04 0.06 0.08 0.10 0.12 0.14 0.18 0.15 0.12 0.07 0.06 0.11 0.02 0.01 0.01 0.01 0.03 0.08 0.09 0.07 0.03 0.01 0.01 0.00 0.01 0.01 0.04 0.07 0.06 0.04 0.04 0.04
0.00 0.00 0.00 0.00 0.00 0.00 0.00 0.00 0.00 0.00 0.00 0.00 0.00 0.00 0.00 0.00 0.00 0.00 0.00 0.00 0.00 0.00 0.00 0.00 0.00 0.00 0.03 0.01 0.03 0.06 0.05 0.01 0.03 0.08 0.06 0.15 0.42 0.68 0.65 0.85 0.41 0.39 0.46 0.47 0.31 0.18 0.20 0.13 0.07 0.19 0.19 0.14 0.09 0.04 0.08 0.12 0.09 0.03 0.02 0.03 0.04 0.02 0.02 0.03 0.02 0.03 0.05 0.06 0.08 0.20 0.23 0.26 0.18 0.09 0.06 0.11 0.07 0.04 0.01 0.02 0.01 0.02 0.03 0.03 0.04 0.01 0.01 0.01 0.02 0.01 0.01 0.04 0.03 0.02 0.01 0.02 0.01
0.00 0.00 0.00 0.00 0.00 0.00 0.00 0.00 0.00 0.00 0.00 0.00 0.00 0.00 0.00 0.00 0.00 0.00 0.00 0.00 0.00 0.00 0.00 0.00 0.00 0.00 0.60 0.04 0.24 0.06 0.03 0.08 0.05 0.03 0.09 0.19 0.27 0.61 0.80 0.98 0.83 1.12 0.82 0.53 0.32 0.24 0.34 0.16 0.15 0.10 0.11 0.19 0.14 0.19 0.09 0.09 0.06 0.04 0.09 0.08 0.06 0.03 0.05 0.04 0.03 0.02 0.03 0.07 0.15 0.14 0.27 0.21 0.18 0.16 0.09 0.10 0.10 0.02 0.03 0.02 0.02 0.03 0.02 0.02 0.02 0.01 0.01 0.02 0.01 0.01 0.02 0.03 0.00 0.01 0.00 0.01 0.01
0.00 0.00 0.00 0.00 0.00 0.00 0.00 0.00 0.00 0.00 0.00 0.00 0.00 0.00 0.00 0.00 0.00 0.00 0.00 0.00 0.00 0.00 0.00 0.00 0.00 0.06 0.12 0.06 0.16 0.11 0.09 0.05 0.03 0.04 0.16 0.26 0.35 0.49 0.74 1.21 1.37 1.23 1.17 0.83 0.99 0.31 0.31 0.19 0.06 0.19 0.26 0.46 0.27 0.53 0.17 0.19 0.10 0.06 0.06 0.07 0.04 0.04 0.03 0.03 0.06 0.04 0.03 0.04 0.08 0.11 0.20 0.11 0.10 0.07 0.10 0.11 0.11 0.02 0.05 0.02 0.03 0.03 0.03 0.04 0.03 0.02 0.01 0.02 0.02 0.02 0.01 0.01 0.01 0.02 0.01 0.02 0.00
0.00 0.00 0.00 0.00 0.00 0.00 0.00 0.00 0.00 0.00 0.00 0.00 0.00 0.00 0.00 0.00 0.00 0.00 0.00 0.00 0.00 0.00 0.00 0.00 0.00 0.02 0.05 0.41 0.17 0.18 0.19 0.17 0.10 0.22 0.40 0.78 0.89 1.23 1.39 1.94 1.26 1.02 1.00 1.29 0.80 0.76 0.53 0.69 0.31 0.14 0.30 1.14 0.89 0.37 0.19 0.13 0.12 0.09 0.07 0.05 0.07 0.06 0.04 0.04 0.05 0.06 0.12 0.07 0.08 0.12 0.10 0.10 0.07 0.06 0.04 0.09 0.08 0.06 0.02 0.02 0.03 0.03 0.02 0.04 0.08 0.05 0.03 0.01 0.02 0.03 0.02 0.01 0.02 0.03 0.01 0.00 0.00
0.00 0.00 0.00 0.00 0.00 0.00 0.00 0.00 0.00 0.00 0.00 0.00 0.00 0.00 0.00 0.00 0.00 0.00 0.00 0.00 0.00 0.00 0.00 0.00 0.00 0.03 0.08 0.19 0.31 0.34 0.14 0.15 0.28 0.71 0.71 0.95 0.92 1.73 2.12 1.15 1.26 1.36 1.69 1.27 1.34 0.57 0.92 0.65 0.86 0.48 0.63 1.67 0.97 0.53 0.31 0.41 0.28 0.22 0.37 0.15 0.04 0.06 0.13 0.10 0.12 0.11 0.11 0.12 0.15 0.18 0.15 0.07 0.07 0.07 0.06 0.09 0.11 0.09 0.04 0.04 0.07 0.04 0.03 0.05 0.06 0.06 0.02 0.01 0.01 0.01 0.01 0.01 0.01 0.00 0.00 0.00 0.00
0.00 0.00 0.00 0.00 0.00 0.00 0.00 0.00 0.00 0.00 0.00 0.00 0.00 0.00 0.00 0.00 0.00 0.00 0.00 0.00 0.00 0.00 0.00 0.00 0.11 0.02 0.10 0.10 0.36 0.50 0.30 0.45 0.72 0.86 0.79 0.71 1.00 1.11 1.08 1.12 1.51 1.99 1.81 1.37 0.88 1.00 0.62 0.69 0.62 1.03 0.56 0.68 0.76 0.49 0.31 0.29 0.37 0.28 0.17 0.16 0.30 0.49 0.66 0.51 0.33 0.21 0.12 0.17 0.24 0.14 0.08 0.09 0.15 0.09 0.09 0.06 0.06 0.07 0.07 0.09 0.08 0.07 0.04 0.10 0.05 0.01 0.01 0.01 0.01 0.01 0.00 0.00 0.00 0.00 0.00 0.00 0.00
0.00 0.00 0.00 0.00 0.00 0.00 0.00 0.00 0.00 0.00 0.00 0.00 0.00 0.00 0.00 0.00 0.00 0.00 0.00 0.00 0.00 0.00 0.00 0.00 0.00 0.00 0.51 0.42 0.34 0.33 0.30 0.76 0.79 0.75 0.79 0.89 0.91 0.79 1.32 1.34 2.51 2.33 1.66 1.45 0.95 1.11 1.07 0.74 0.54 0.51 0.67 0.50 0.31 0.24 0.21 0.41 0.48 0.40 0.44 0.62 0.51 0.46 0.28 1.25 1.10 0.77 0.66 1.09 0.67 0.36 0.18 0.10 0.14 0.13 0.13 0.12 0.10 0.11 0.11 0.12 0.06 0.08 0.09 0.06 0.06 0.02 0.01 0.01 0.01 0.01 0.00 0.00 0.00 0.00 0.00 0.00 0.00
0.00 0.00 0.00 0.00 0.00 0.00 0.00 0.00 0.00 0.00 0.00 0.00 0.00 0.00 0.00 0.00 0.00 0.00 0.00 0.00 0.00 0.00 0.00 0.00 0.01 0.02 0.56 0.20 0.74 0.41 0.86 0.70 0.74 0.69 0.48 0.53 0.43 0.82 1.08 1.53 1.66 1.92 2.22 1.46 0.74 1.02 0.81 0.79 0.80 0.64 0.74 0.80 0.72 0.57 0.31 0.30 0.37 0.20 0.39 0.55 0.59 0.45 0.59 0.58 0.64 0.77 1.04 1.06 0.96 0.40 0.31 0.16 0.15 0.13 0.18 0.11 0.20 0.20 0.13 0.07 0.09 0.07 0.06 0.04 0.05 0.04 0.02 0.02 0.01 0.01 0.00 0.00 0.00 0.00 0.00 0.00 0.00
0.00 0.00 0.00 0.00 0.00 0.00 0.00 0.00 0.00 0.00 0.00 0.00 0.00 0.00 0.00 0.00 0.00 0.00 0.00 0.00 0.00 0.00 0.00 0.00 0.00 0.01 1.34 0.14 0.62 0.38 0.40 0.54 0.41 0.25 0.39 0.39 0.44 0.86 1.90 1.75 2.69 2.61 2.34 1.78 0.79 0.64 0.65 0.74 0.99 0.74 0.73 0.78 0.86 0.88 0.88 0.74 0.44 0.43 0.29 0.72 0.56 0.45 0.42 1.12 1.38 0.68 0.50 0.99 1.05 0.69 0.37 0.31 0.30 0.16 0.17 0.19 0.20 0.13 0.27 0.08 0.05 0.04 0.04 0.04 0.06 0.03 0.02 0.02 0.00 0.01 0.00 0.01 0.00 0.00 0.00 0.00 0.00
0.00 0.00 0.00 0.00 0.00 0.00 0.00 0.00 0.00 0.00 0.00 0.00 0.00 0.00 0.00 0.00 0.00 0.00 0.00 0.00 0.00 0.00 0.00 0.08 0.00 0.09 0.13 0.05 0.20 0.21 0.14 0.28 0.39 0.34 0.39 0.48 0.80 0.99 1.33 1.75 1.94 2.55 2.24 1.25 0.90 0.95 0.91 0.80 1.14 1.37 1.09 0.98 0.78 0.98 0.71 0.61 0.81 0.46 0.67 0.90 1.68 0.65 0.60 0.78 1.15 1.11 1.03 0.81 1.03 0.60 0.49 0.74 0.62 0.56 0.52 0.39 0.27 0.11 0.13 0.19 0.02 0.03 0.03 0.06 0.02 0.01 0.01 0.00 0.01 0.01 0.01 0.01 0.00 0.00 0.00 0.00 0.00
0.00 0.00 0.00 0.00 0.00 0.00 0.00 0.00 0.00 0.00 0.00 0.00 0.00 0.00 0.00 0.00 0.00 0.00 0.00 0.00 0.01 0.00 0.01 0.00 0.03 0.01 0.13 0.13 0.15 0.08 0.18 0.18 0.19 0.30 0.34 0.95 1.30 1.22 1.49 1.21 2.02 1.53 1.38 1.11 1.16 0.93 1.33 1.00 1.14 1.39 1.62 1.21 1.36 1.17 0.61 0.86 0.80 1.10 1.18 1.51 1.07 0.84 0.60 1.02 0.89 1.24 0.72 0.90 0.73 0.65 0.51 0.50 0.80 0.60 0.48 0.49 0.31 0.45 0.12 0.07 0.04 0.07 0.05 0.04 0.02 0.02 0.01 0.01 0.01 0.00 0.01 0.01 0.02 0.00 0.00 0.00 0.00
0.00 0.00 0.00 0.00 0.00 0.00 0.00 0.00 0.00 0.00 0.00 0.00 0.00 0.00 0.00 0.00 0.00 0.00 0.00 0.00 0.00 0.00 0.00 0.01 0.02 0.05 0.15 0.09 0.15 0.07 0.17 0.28 0.34 0.44 0.91 0.90 0.86 1.30 0.97 0.93 1.18 1.74 1.19 1.29 1.54 1.43 1.06 1.59 1.11 1.44 1.48 1.57 1.42 1.28 1.15 1.15 1.91 1.30 1.59 1.54 1.45 1.13 0.90 1.40 1.53 1.68 1.53 1.48 0.62 0.69 0.92 1.05 0.72 0.83 0.66 1.10 0.47 0.27 0.33 0.06 0.12 0.08 0.08 0.09 0.03 0.01 0.01 0.01 0.01 0.01 0.00 0.00 0.03 0.02 0.00 0.00 0.00
0.00 0.00 0.00 0.00 0.00 0.00 0.00 0.00 0.00 0.00 0.00 0.00 0.00 0.00 0.00 0.00 0.00 0.00 0.01 0.00 0.00 0.00 0.01 0.01 0.05 0.16 0.21 0.26 0.25 0.17 0.21 0.34 0.38 0.75 0.87 0.82 0.80 0.67 0.90 1.47 1.50 1.28 1.62 1.06 1.35 1.51 2.06 1.29 1.09 1.25 1.39 1.52 1.74 1.68 0.95 1.37 1.37 1.02 1.35 1.13 0.82 1.09 1.65 1.41 2.27 1.41 1.69 1.24 1.55 0.93 1.64 1.32 1.02 1.49 0.96 0.64 0.55 0.54 0.29 0.06 0.09 0.21 0.13 0.11 0.03 0.02 0.01 0.01 0.01 0.00 0.00 0.00 0.01 0.01 0.00 0.02 0.03
0.00 0.00 0.00 0.00 0.00 0.00 0.00 0.00 0.00 0.00 0.00 0.00 0.00 0.00 0.00 0.00 0.00 0.00 0.01 0.01 0.00 0.00 0.04 0.03 0.07 0.29 0.22 0.38 0.26 0.28 0.42 0.54 0.65 0.61 0.76 0.93 1.10 0.81 0.72 1.07 0.88 1.11 1.21 1.32 1.80 1.37 1.60 1.32 1.15 1.30 1.46 1.62 1.54 1.33 1.15 0.95 1.29 1.70 0.75 1.01 1.13 1.11 1.41 2.10 1.87 1.89 1.81 2.33 2.30 1.97 1.91 1.62 1.49 1.61 1.42 0.96 0.91 0.71 0.48 0.16 0.21 0.25 0.20 0.17 0.07 0.06 0.03 0.01 0.01 0.01 0.01 0.00 0.00 0.01 0.02 0.02 0.01
0.00 0.00 0.00 0.00 0.00 0.00 0.00 0.00 0.00 0.00 0.00 0.00 0.00 0.00 0.00 0.00 0.00 0.00 0.00 0.00 0.03 0.01 0.00 0.03 0.10 0.21 0.22 0.34 0.35 0.30 0.40 0.56 0.77 0.66 0.96 0.72 1.55 1.21 1.61 1.81 1.22 1.92 2.39 2.16 1.87 1.45 1.01 1.26 1.02 1.01 1.12 0.88 1.08 1.00 1.15 1.27 1.78 1.01 0.90 1.34 1.16 0.97 0.96 2.24 2.20 1.52 2.09 2.04 1.77 2.19 1.58 1.92 1.73 1.57 1.02 0.80 0.78 0.55 0.76 0.46 0.59 0.41 0.42 0.33 0.15 0.09 0.15 0.14 0.01 0.03 0.06 0.02 0.02 0.02 0.01 0.00 0.02
0.00 0.00 0.00 0.00 0.00 0.00 0.00 0.00 0.00 0.00 0.00 0.00 0.00 0.00 0.00 0.00 0.00 0.00 0.00 0.00 0.01 0.00 0.03 0.01 0.06 0.13 0.51 0.74 0.31 0.33 0.79 0.54 0.50 0.56 1.13 1.25 1.27 1.32 3.44 2.83 2.90 2.89 2.39 1.40 1.50 1.51 1.36 0.90 0.72 0.74 0.98 1.13 1.11 0.95 0.98 1.58 1.29 1.29 1.18 0.99 1.20 1.15 1.53 2.04 1.96 1.69 1.53 1.77 1.66 1.54 2.53 2.11 2.46 1.57 1.80 1.42 1.09 1.13 0.74 0.57 0.52 0.51 0.34 0.32 0.27 0.53 0.21 0.14 0.14 0.14 0.05 0.05 0.02 0.02 0.01 0.02 0.00
0.00 0.00 0.00 0.00 0.00 0.00 0.00 0.00 0.00 0.00 0.00 0.00 0.00 0.00 0.00 0.00 0.00 0.00 0.00 0.00 0.00 0.00 0.00 0.00 0.03 0.05 0.34 1.20 0.51 1.18 1.85 1.61 0.93 1.75 1.47 1.97 3.18 3.45 2.91 2.73 1.85 2.13 1.49 1.40 1.50 1.18 1.21 1.11 0.82 0.93 0.96 0.81 1.11 1.18 1.02 1.05 1.50 1.68 1.22 1.12 1.26 1.77 1.34 1.90 1.24 1.70 1.90 2.53 1.96 2.12 1.84 1.53 1.43 2.06 1.69 1.22 0.87 1.34 0.86 0.93 0.69 0.51 0.46 0.52 0.46 0.57 0.41 0.34 0.24 0.13 0.39 0.24 0.06 0.02 0.02 0.01 0.00
0.00 0.00 0.00 0.00 0.00 0.00 0.00 0.00 0.00 0.00 0.00 0.00 0.00 0.00 0.00 0.00 0.00 0.00 0.00 0.00 0.00 0.00 0.00 0.02 0.06 0.13 0.11 0.58 1.61 1.61 2.26 3.34 2.89 2.18 3.25 3.46 3.10 3.59 2.79 3.12 2.89 2.74 2.02 1.57 1.06 1.53 0.73 1.24 0.86 0.78 0.80 0.85 1.13 1.10 0.76 0.74 1.09 1.16 1.08 1.28 1.77 1.89 2.05 1.98 1.31 1.54 2.86 3.33 2.64 2.69 1.69 1.68 1.73 1.68 1.84 1.38 1.02 1.08 0.77 0.90 0.99 1.11 0.87 0.55 0.59 0.55 0.52 0.32 0.24 0.29 0.28 0.29 0.38 0.13 0.02 0.01 0.02
0.00 0.00 0.00 0.00 0.00 0.00 0.00 0.00 0.00 0.00 0.00 0.00 0.00 0.00 0.00 0.00 0.00 0.00 0.00 0.00 0.00 0.00 0.00 0.01 0.09 0.14 0.29 0.23 0.22 1.19 2.03 2.69 3.50 3.65 4.27 4.38 2.29 1.75 2.48 2.76 3.12 2.21 1.39 1.19 1.21 1.39 1.30 1.22 1.13 0.63 0.96 0.94 0.79 0.85 0.71 0.67 1.04 1.33 0.90 1.36 1.70 1.85 1.36 1.78 1.73 2.19 3.73 2.33 2.54 2.27 1.88 2.09 1.98 1.49 1.58 1.45 1.29 1.43 1.40 1.39 1.54 1.42 1.39 1.03 0.96 0.37 0.52 0.54 0.68 0.63 0.54 0.49 0.42 0.55 0.19 0.03 0.03
0.00 0.00 0.00 0.00 0.00 0.00 0.00 0.00 0.00 0.00 0.00 0.00 0.00 0.00 0.00 0.00 0.00 0.00 0.00 0.00 0.00 0.00 0.01 0.02 0.15 0.23 0.21 0.26 0.27 0.32 1.18 1.91 2.14 3.89 5.94 3.81 3.95 3.27 2.08 2.21 1.54 1.32 1.85 2.37 1.81 1.45 1.49 1.73 0.92 0.73 1.05 0.94 1.00 1.13 0.96 0.83 1.17 1.39 1.02 1.22 1.01 1.30 1.77 2.57 2.20 3.00 3.65 3.38 2.58 1.87 2.20 1.94 2.39 2.26 1.77 1.70 1.06 1.43 1.98 2.53 2.66 2.18 2.02 1.65 1.00 0.65 0.46 0.41 1.20 0.99 0.94 0.45 0.62 0.30 0.40 0.20 0.03
0.00 0.00 0.00 0.00 0.00 0.00 0.00 0.00 0.00 0.00 0.00 0.00 0.00 0.00 0.00 0.00 0.00 0.00 0.00 0.00 0.01 0.00 0.01 0.06 0.17 0.38 0.23 0.19 0.40 0.59 0.45 0.81 1.58 4.13 3.63 3.22 4.19 3.41 3.00 1.80 0.79 0.97 0.85 1.22 1.35 1.51 1.27 1.11 1.44 0.98 1.34 1.48 1.47 1.30 0.97 0.96 1.24 1.61 1.57 1.25 1.16 1.78 2.00 2.28 3.20 3.96 3.30 3.37 3.05 2.35 2.11 2.40 2.07 2.03 1.67 1.59 2.73 2.82 1.68 1.65 1.63 3.02 2.43 2.30 1.35 0.77 0.85 0.74 1.02 0.96 0.81 0.68 0.46 0.26 0.72 0.32 0.07
0.00 0.00 0.00 0.00 0.00 0.00 0.00 0.00 0.00 0.00 0.00 0.00 0.00 0.00 0.00 0.00 0.00 0.00 0.00 0.02 0.01 0.01 0.03 0.06 0.07 0.20 0.26 0.25 0.26 0.27 0.29 0.33 0.38 1.28 1.65 3.01 4.02 4.29 2.72 2.14 1.79 1.39 0.68 1.84 0.95 1.30 1.64 1.89 1.57 0.97 0.96 0.82 0.84 1.05 0.96 1.33 1.45 1.38 1.55 1.32 1.55 1.71 1.63 1.86 2.90 2.66 3.14 2.94 2.84 2.16 1.80 2.03 1.83 1.86 1.73 2.51 1.80 1.77 1.55 1.15 1.16 2.14 2.33 2.44 2.29 1.16 0.74 0.88 1.14 0.84 0.90 0.49 0.40 0.59 0.54 0.37 0.26
0.00 0.00 0.00 0.00 0.00 0.00 0.00 0.00 0.00 0.00 0.00 0.00 0.00 0.00 0.00 0.00 0.00 0.00 0.01 0.02 0.03 0.01 0.03 0.06 0.14 0.19 0.23 0.30 0.32 0.32 0.26 0.32 0.34 0.21 0.81 1.08 1.82 1.81 2.76 3.19 3.61 2.39 1.06 0.98 0.96 0.89 1.34 1.99 2.11 0.87 0.54 0.59 1.16 0.98 1.34 0.96 0.84 1.09 1.47 1.64 1.72 1.44 1.20 1.54 1.52 1.68 1.87 2.96 2.51 2.20 2.98 1.61 1.89 1.85 2.12 1.70 1.37 1.17 1.39 1.65 1.68 1.44 2.41 3.25 3.30 2.36 2.07 1.65 0.83 0.58 1.01 0.73 0.63 0.46 0.38 0.30 0.15
0.00 0.00 0.00 0.00 0.00 0.00 0.00 0.00 0.00 0.00 0.00 0.00 0.00 0.00 0.00 0.00 0.00 0.00 0.02 0.02 0.03 0.05 0.07 0.11 0.14 0.18 0.25 0.30 0.43 0.43 0.53 0.59 0.39 0.48 0.82 1.16 0.88 1.73 1.78 2.13 2.65 2.26 1.13 1.04 1.28 1.06 1.53 1.24 1.60 1.44 1.01 1.42 1.39 1.13 0.99 0.94 0.90 1.20 0.98 1.27 1.26 1.43 1.27 1.10 1.37 1.49 2.18 2.25 2.50 2.34 2.07 2.55 2.48 2.49 2.00 1.59 1.30 1.84 1.78 1.75 1.36 1.76 2.05 3.77 2.72 2.77 3.13 2.43 1.19 0.70 0.78 0.38 0.43 0.53 0.45 0.34 0.31
0.00 0.00 0.00 0.00 0.00 0.00 0.00 0.00 0.00 0.00 0.00 0.00 0.00 0.00 0.00 0.00 0.00 0.01 0.03 0.01 0.01 0.03 0.06 0.12 0.19 0.16 0.22 0.28 0.35 0.38 0.56 0.44 0.27 0.65 0.86 1.48 1.28 1.27 2.15 2.48 2.77 1.55 1.73 3.17 2.38 1.85 1.56 1.95 1.68 1.78 1.66 1.62 1.27 1.57 1.06 0.64 1.04 1.30 1.18 1.24 1.50 0.82 1.71 1.29 0.93 1.58 2.16 1.72 1.98 1.99 2.72 2.12 2.21 2.32 2.50 1.97 1.64 2.44 2.76 2.10 1.39 1.15 1.15 1.21 1.81 2.14 2.93 2.79 1.76 1.51 1.26 0.72 0.42 0.32 0.65 0.71 0.72
0.00 0.00 0.00 0.00 0.00 0.00 0.00 0.00 0.00 0.00 0.00 0.00 0.00 0.00 0.00 0.00 0.00 0.01 0.02 0.02 0.01 0.01 0.06 0.18 0.24 0.13 0.20 0.22 0.40 0.32 0.46 0.41 0.58 0.48 0.54 1.11 1.62 2.17 2.41 2.40 2.24 2.58 2.66 3.13 2.27 1.84 1.69 1.85 1.51 1.59 2.07 1.45 2.37 1.17 1.08 1.08 1.45 1.60 1.49 1.57 1.69 1.44 1.24 1.18 1.09 1.58 1.40 1.44 1.48 1.64 2.24 1.92 1.60 1.37 1.48 1.83 2.11 2.22 2.20 2.00 1.57 1.76 1.71 1.26 1.33 2.06 2.64 2.62 1.93 1.26 1.19 0.83 0.42 0.34 0.38 0.95 1.00
0.00 0.00 0.00 0.00 0.00 0.00 0.00 0.00 0.00 0.00 0.00 0.00 0.00 0.00 0.00 0.00 0.00 0.01 0.05 0.03 0.02 0.07 0.12 0.22 0.16 0.23 0.25 0.21 0.18 0.22 0.34 0.50 0.55 0.97 1.57 2.07 3.05 3.41 3.48 2.93 2.45 3.37 3.19 2.88 2.28 2.22 1.55 2.38 1.96 1.69 2.53 2.03 1.68 1.60 1.70 1.33 1.89 1.94 1.78 1.43 1.44 1.61 0.97 0.98 0.59 1.22 1.08 0.95 0.96 0.65 1.21 1.45 1.34 1.93 1.84 1.55 1.99 2.14 2.35 2.19 1.93 1.92 1.71 1.47 1.36 1.17 1.36 1.96 2.61 1.99 1.22 1.03 0.74 0.71 0.46 1.22 1.08
0.00 0.00 0.00 0.00 0.00 0.00 0.01 0.00 0.00 0.00 0.00 0.00 0.00 0.00 0.00 0.00 0.00 0.01 0.04 0.02 0.03 0.06 0.33 0.36 0.43 0.23 0.67 0.23 0.33 0.26 0.25 0.38 0.90 1.33 1.62 2.13 3.68 4.14 2.42 2.61 3.37 4.70 5.47 3.78 2.98 2.85 2.20 1.71 1.23 1.59 1.62 1.55 2.11 1.73 1.72 1.40 1.63 1.91 1.74 1.30 1.38 1.06 0.59 0.77 0.51 0.63 0.76 0.71 0.80 0.65 0.49 1.52 1.58 1.23 1.08 1.07 1.28 1.86 2.25 2.15 2.12 2.97 2.15 1.73 1.79 1.50 1.37 1.46 1.64 2.03 1.84 1.29 1.06 1.23 1.36 1.62 1.70
0.04 0.01 0.01 0.01 0.00 0.01 0.00 0.00 0.00 0.00 0.00 0.00 0.00 0.00 0.00 0.00 0.00 0.01 0.01 0.02 0.01 0.06 0.11 0.20 0.30 0.59 0.25 0.15 0.55 0.49 0.37 0.41 0.49 0.99 1.92 2.27 2.71 3.00 2.92 2.90 3.33 4.24 3.82 2.98 3.38 3.63 2.48 1.52 1.47 1.22 1.13 1.59 1.54 1.80 1.01 1.51 1.22 1.32 1.50 1.27 1.20 0.74 0.93 0.96 1.25 1.31 0.84 1.04 0.61 0.63 0.76 0.97 1.13 1.17 0.91 1.00 1.14 1.43 1.40 1.64 1.99 2.70 2.26 2.55 2.38 1.85 1.61 1.12 1.50 1.94 2.32 2.20 1.96 1.93 2.53 1.77 2.23
0.02 0.01 0.02 0.01 0.01 0.01 0.01 0.01 0.00 0.00 0.00 0.00 0.00 0.00 0.00 0.00 0.00 0.01 0.04 0.08 0.03 0.04 0.12 0.18 0.25 0.19 0.48 0.48 0.66 0.61 0.42 0.41 0.70 1.67 1.85 2.43 3.25 2.50 3.25 3.59 4.61 2.63 2.40 2.33 2.60 2.35 1.97 2.03 1.05 1.25 1.42 1.24 1.52 1.75 2.49 2.08 1.47 1.41 1.79 1.82 1.26 1.09 1.03 0.83 1.08 1.14 0.64 0.67 0.93 1.11 1.09 0.98 0.58 0.85 0.68 1.07 2.01 1.13 1.37 1.84 1.77 1.41 2.13 3.35 2.60 2.13 1.30 1.48 1.69 1.94 1.75 2.02 2.36 2.17 1.86 1.86 1.99
0.00 0.01 0.00 0.02 0.01 0.01 0.00 0.00 0.00 0.00 0.00 0.00 0.00 0.00 0.00 0.00 0.00 0.00 0.00 0.03 0.07 0.10 0.28 0.21 0.22 0.20 0.29 0.17 0.14 0.47 0.77 0.70 1.18 2.06 1.67 2.22 2.83 3.99 3.28 2.72 2.55 2.21 2.56 2.17 2.41 2.61 2.52 2.41 1.59 1.48 1.52 2.37 2.26 2.19 1.95 2.13 1.89 1.86 1.21 0.96 0.87 0.85 0.91 0.81 0.70 0.67 0.77 0.71 1.27 1.57 1.30 0.93 0.99 0.96 0.70 0.79 0.83 0.83 1.09 1.25 2.42 2.43 1.41 2.20 1.94 2.29 2.09 1.75 1.78 2.03 1.98 1.93 2.35 1.76 1.95 1.82 2.42
0.06 0.05 0.02 0.01 0.00 0.02 0.01 0.01 0.02 0.00 0.00 0.00 0.00 0.00 0.00 0.00 0.00 0.00 0.02 0.03 0.03 0.02 0.09 0.13 0.22 0.17 0.33 0.18 0.14 0.30 0.78 0.63 1.48 2.34 2.82 3.21 3.41 3.57 2.83 1.53 1.83 1.80 1.84 2.17 1.92 1.71 1.85 2.19 2.09 2.05 2.87 2.71 2.12 1.46 1.30 1.79 1.66 1.21 0.78 0.96 0.94 0.89 0.88 0.84 0.52 0.68 0.77 1.00 1.60 1.20 0.95 0.90 0.75 0.96 0.72 0.97 0.83 0.90 1.10 1.01 1.66 1.86 1.99 2.08 1.85 1.79 1.91 2.52 2.47 2.16 1.99 3.04 1.93 2.44 2.61 2.27 2.74
0.03 0.02 0.01 0.01 0.00 0.02 0.00 0.00 0.00 0.00 0.00 0.00 0.01 0.00 0.00 0.00 0.00 0.01 0.01 0.01 0.01 0.01 0.02 0.08 0.11 0.26 0.24 0.18 0.14 0.33 0.81 0.84 1.49 2.32 2.17 2.76 2.72 1.96 1.65 1.80 2.47 2.52 2.71 2.85 4.19 3.60 2.22 1.33 1.80 2.00 2.15 1.15 1.10 1.65 1.13 1.15 0.93 0.84 1.09 1.22 1.49 0.91 1.22 1.08 0.98 0.71 1.07 1.27 1.11 1.26 0.73 0.90 0.57 0.58 0.62 0.54 0.67 1.17 1.06 1.02 1.18 1.80 1.98 2.16 1.72 1.78 1.14 1.46 1.96 2.03 1.92 1.40 2.09 1.84 1.78 2.75 2.78
0.01 0.03 0.03 0.01 0.01 0.07 0.08 0.05 0.06 0.03 0.01 0.00 0.00 0.01 0.00 0.00 0.00 0.00 0.00 0.00 0.01 0.03 0.03 0.12 0.18 0.21 0.39 0.34 0.30 0.21 0.31 1.25 2.75 2.59 2.33 3.18 2.80 2.48 2.06 1.49 2.55 1.26 1.43 1.70 2.39 1.76 2.88 2.70 2.32 1.79 1.24 1.02 1.02 0.91 0.94 0.84 0.67 0.79 0.72 0.65 1.06 0.95 0.67 0.58 0.62 0.85 1.25 1.27 1.21 0.61 1.27 1.29 0.84 0.63 0.57 0.84 0.59 0.83 1.14 1.15 1.56 1.20 1.51 1.61 1.74 1.95 1.58 1.41 1.17 1.63 1.69 1.60 1.82 2.11 1.54 2.61 2.01
0.02 0.02 0.02 0.01 0.02 0.10 0.04 0.10 0.03 0.01 0.00 0.00 0.00 0.02 0.00 0.00 0.00 0.00 0.00 0.01 0.02 0.01 0.05 0.08 0.17 0.32 0.66 0.60 0.61 0.40 0.33 0.50 1.40 2.07 2.48 3.04 2.31 2.68 1.19 1.98 2.52 1.85 1.40 1.64 1.81 2.16 2.70 1.63 1.89 1.49 1.56 1.57 1.34 1.00 0.99 0.88 1.52 0.78 0.53 0.51 0.59 0.64 0.59 0.57 0.51 0.56 1.18 0.96 0.96 0.67 0.91 0.81 0.90 0.96 0.77 0.81 0.42 0.54 0.89 1.15 1.46 1.10 0.85 1.07 1.17 1.54 1.48 1.22 1.32 1.10 0.97 1.36 1.29 1.86 1.48 2.07 2.17
0.02 0.01 0.00 0.01 0.01 0.03 0.02 0.02 0.04 0.07 0.03 0.00 0.00 0.03 0.02 0.01 0.01 0.00 0.00 0.01 0.05 0.01 0.03 0.08 0.14 0.05 0.20 0.24 0.42 0.17 0.29 1.48 1.65 2.12 2.86 1.92 2.92 3.09 1.98 2.76 2.77 1.58 1.71 2.25 1.87 2.98 3.04 2.99 2.15 2.13 3.02 2.20 1.44 0.77 0.59 0.78 1.50 0.68 0.81 0.66 0.44 0.52 0.35 0.37 0.31 0.18 0.25 0.50 0.72 0.40 0.78 0.77 0.88 1.12 1.03 0.75 0.59 0.93 1.24 0.85 0.95 1.03 0.94 0.74 0.83 1.01 0.98 1.41 1.51 1.42 0.80 0.82 0.83 1.17 1.25 1.46 2.13
0.03 0.08 0.03 0.03 0.02 0.02 0.03 0.04 0.08 0.15 0.15 0.10 0.00 0.14 0.06 0.01 0.01 0.00 0.00 0.00 0.01 0.00 0.03 0.14 0.20 0.17 0.10 0.15 0.17 0.46 0.72 1.40 2.40 2.55 2.21 2.98 5.00 3.36 3.26 3.77 1.81 0.95 1.57 0.95 1.38 1.94 3.17 3.54 2.37 2.86 1.89 1.03 0.72 0.79 0.65 0.55 1.47 0.62 0.40 0.36 0.23 0.30 0.36 0.25 0.27 0.22 0.25 0.39 0.68 0.78 0.68 0.88 1.32 1.45 1.31 1.12 0.97 1.17 1.27 0.91 0.56 0.42 0.70 1.42 1.31 0.96 0.93 0.80 1.00 1.06 1.40 1.50 0.93 1.03 1.47 1.52 1.31
0.05 0.04 0.05 0.04 0.03 0.02 0.07 0.06 0.09 0.17 0.02 0.01 0.02 0.04 0.10 0.06 0.04 0.00 0.01 0.01 0.02 0.02 0.03 0.10 0.25 0.19 0.14 0.32 0.31 0.25 0.93 1.74 1.50 1.34 2.24 3.51 3.56 2.62 2.91 1.62 0.78 1.20 0.65 1.50 2.97 2.72 3.82 3.10 3.00 1.52 1.08 0.71 0.83 0.86 0.86 1.35 0.86 0.46 0.38 0.35 0.22 0.21 0.30 0.25 0.21 0.22 0.40 0.47 0.74 0.91 0.72 1.24 1.14 1.49 1.92 1.34 1.45 1.28 1.60 1.08 0.79 0.68 0.59 0.83 0.74 0.89 0.86 0.82 0.91 1.35 1.50 1.56 1.79 1.74 1.62 1.49 1.38
0.08 0.05 0.05 0.09 0.05 0.10 0.03 0.05 0.06 0.11 0.09 0.17 0.04 0.09 0.09 0.07 0.04 0.00 0.01 0.02 0.02 0.05 0.03 0.14 0.09 0.11 0.21 0.45 0.30 0.44 0.62 0.72 1.42 1.48 2.91 2.39 1.44 3.11 2.66 1.97 1.22 1.13 2.90 2.09 1.01 1.77 3.70 3.08 1.42 1.35 1.85 1.90 1.11 0.75 0.94 0.58 0.46 0.62 0.40 0.29 0.20 0.30 0.37 0.47 0.36 0.40 0.48 0.49 0.69 0.66 0.69 1.03 1.59 2.35 1.69 1.45 1.66 1.25 1.35 0.82 0.76 0.79 1.06 0.94 0.59 1.03 1.04 0.86 0.98 0.96 0.98 1.24 1.54 1.68 2.25 1.91 1.70
0.02 0.03 0.05 0.03 0.03 0.03 0.04 0.08 0.04 0.11 0.15 0.16 0.05 0.07 0.16 0.03 0.05 0.01 0.01 0.03 0.10 0.09 0.11 0.11 0.16 0.14 0.30 0.20 0.31 0.29 0.75 1.01 1.21 2.52 2.61 1.16 2.24 2.44 2.11 1.43 1.14 2.57 2.80 2.04 1.68 1.50 1.27 1.46 2.07 2.93 3.37 3.26 1.85 1.36 0.99 0.94 0.78 0.82 0.97 0.62 0.41 0.56 0.35 0.37 0.43 0.59 0.52 0.63 0.52 0.78 0.95 1.37 1.75 2.23 2.69 2.40 1.80 1.73 1.31 0.88 0.82 0.85 1.01 0.75 0.55 0.93 0.79 0.69 0.69 0.63 0.74 0.78 1.44 2.18 1.93 1.97 2.00
0.13 0.07 0.04 0.16 0.07 0.06 0.05 0.09 0.09 0.17 0.31 0.07 0.01 0.04 0.05 0.10 0.18 0.11 0.20 0.06 0.09 0.11 0.16 0.15 0.11 0.15 0.29 0.19 0.32 0.52 0.66 0.63 1.61 3.12 1.85 1.95 3.25 2.57 2.54 2.70 2.89 3.89 3.73 2.77 1.53 0.80 1.20 1.15 1.56 1.79 1.94 1.91 1.34 1.34 1.14 1.23 0.96 0.81 0.68 0.67 0.86 0.63 0.46 0.43 0.62 0.67 0.95 0.59 0.53 0.71 0.78 1.24 2.16 1.95 1.69 1.41 1.78 1.13 0.86 0.89 0.72 0.65 0.74 0.82 1.05 0.91 0.45 0.94 0.71 0.53 0.84 0.99 1.51 1.47 1.51 1.67 1.64
0.06 0.20 0.17 0.15 0.34 0.11 0.14 0.22 0.24 0.45 0.20 0.04 0.03 0.01 0.11 0.13 0.19 0.14 0.10 0.08 0.09 0.10 0.17 0.10 0.29 0.11 0.12 0.15 0.34 0.53 0.53 0.64 1.36 1.16 0.56 1.55 3.15 2.04 2.43 2.63 3.19 2.65 2.42 2.04 1.37 1.01 0.87 0.74 0.56 1.31 2.56 1.98 3.56 3.10 2.35 1.37 1.08 0.87 1.01 1.17 1.21 1.41 0.82 0.90 0.94 0.98 0.52 0.69 0.69 1.01 1.17 1.35 2.18 1.11 1.38 1.39 1.15 0.96 0.73 0.73 0.65 0.69 0.51 0.71 1.02 1.21 0.82 0.54 0.60 1.03 1.42 1.10 0.97 1.21 1.49 1.60 1.57
0.08 0.13 0.10 0.26 0.54 0.37 0.39 0.34 0.33 0.31 0.11 0.14 0.02 0.03 0.04 0.01 0.41 0.16 0.08 0.12 0.08 0.14 0.10 0.12 0.10 0.14 0.16 0.16 0.15 0.34 0.39 0.76 1.47 1.49 1.63 2.03 1.51 1.74 1.47 1.83 1.69 2.48 2.83 2.65 1.74 1.53 0.84 1.06 0.70 1.10 2.78 2.45 1.27 0.79 0.98 0.94 1.05 1.60 1.75 1.37 1.24 1.15 1.11 0.78 0.79 0.75 0.78 0.71 0.70 0.88 1.01 2.19 1.08 0.95 0.82 0.59 0.93 0.81 0.59 0.53 0.36 0.23 0.33 0.83 1.46 0.62 0.83 0.78 1.11 0.90 1.26 0.92 0.87 0.82 0.71 0.92 1.46
0.08 0.11 0.28 0.39 0.53 0.40 0.28 0.24 0.18 0.18 0.05 0.05 0.09 0.06 0.07 0.22 0.25 0.14 0.26 0.35 0.29 0.29 0.13 0.09 0.10 0.14 0.18 0.19 0.45 0.97 1.44 1.74 1.41 1.29 1.47 1.89 1.58 1.86 1.68 2.07 2.26 2.80 1.78 2.53 2.22 2.89 2.26 1.37 1.23 1.61 1.65 1.09 0.73 0.82 0.84 0.90 1.25 1.47 1.90 1.90 1.64 1.40 1.45 1.13 1.04 0.93 0.82 0.87 0.72 0.39 0.94 0.95 0.69 1.03 0.42 0.72 0.61 0.72 0.36 0.34 0.43 0.54 0.52 1.17 1.27 0.83 0.66 1.00 1.27 0.88 1.00 1.08 1.10 0.96 1.17 1.10 1.37
0.12 0.04 0.19 0.39 0.37 0.52 0.30 0.19 0.17 0.06 0.22 0.12 0.09 0.03 0.07 0.20 0.75 0.05 0.18 0.27 0.32 0.25 0.31 0.25 0.24 0.19 0.25 0.55 0.64 0.40 0.42 0.57 0.52 0.94 1.67 1.48 1.20 1.23 1.92 2.20 2.63 2.16 1.95 2.29 2.02 1.87 2.87 2.81 1.82 2.64 2.69 1.32 1.08 1.00 1.29 1.15 1.28 1.66 1.38 1.75 0.88 0.90 1.22 1.10 0.97 0.99 0.87 0.87 0.67 0.53 0.69 0.72 0.80 0.85 0.76 0.61 0.63 0.77 0.42 0.39 0.43 0.60 0.82 0.88 0.75 0.78 0.94 1.11 0.89 1.59 0.80 1.30 1.09 1.12 1.08 1.13 1.13
0.06 0.09 0.10 0.25 0.30 0.21 0.43 0.35 0.16 0.36 0.19 0.14 0.11 0.05 0.31 0.65 0.44 0.19 0.17 0.11 0.15 0.11 0.10 0.13 0.17 0.19 0.21 0.30 0.20 0.26 0.35 0.34 0.41 0.60 0.70 0.72 1.39 1.53 2.15 3.01 2.71 2.11 1.68 2.01 1.74 2.36 2.25 1.87 2.41 2.45 2.72 2.26 2.36 1.49 1.05 0.94 0.84 1.06 1.10 0.69 0.70 0.97 0.64 0.87 0.70 0.83 1.05 1.01 0.71 0.64 0.85 1.23 1.25 0.93 0.92 0.49 0.65 0.87 0.84 0.79 0.67 0.75 0.69 0.79 0.76 1.05 1.68 1.47 1.32 1.33 0.90 0.65 1.05 0.70 0.82 0.97 1.26
0.49 0.08 0.26 0.19 0.15 0.18 0.31 0.19 0.09 0.09 0.10 0.20 0.11 0.14 0.15 0.08 0.34 0.33 0.40 0.25 0.19 0.27 0.29 0.27 0.26 0.29 0.26 0.25 0.31 0.40 0.30 0.30 0.21 0.48 0.97 1.45 1.27 1.86 2.03 1.24 1.92 1.46 1.64 1.44 1.99 1.79 1.77 1.70 2.25 2.38 2.81 3.51 3.31 2.02 1.61 0.77 1.61 2.19 1.38 1.48 0.75 0.58 0.62 0.78 0.86 0.75 0.87 0.96 1.82 1.34 1.31 1.25 1.59 1.19 1.26 0.69 0.65 0.48 1.11 0.76 0.92 1.12 0.64 0.67 1.09 1.26 1.33 1.22 1.04 1.45 0.77 1.11 0.58 0.59 0.93 0.78 0.88
0.41 0.25 0.34 0.10 0.09 0.19 0.27 0.54 0.29 0.19 0.15 0.12 0.03 0.09 0.31 0.08 0.94 0.36 0.46 0.21 0.17 0.26 0.29 0.26 0.34 0.33 0.37 0.58 0.44 0.46 0.54 0.37 0.57 1.27 1.42 1.67 1.82 1.32 1.29 1.43 1.39 1.45 1.76 2.02 1.31 1.03 1.35 2.29 2.94 4.61 5.19 7.10 4.93 3.31 2.17 2.79 3.03 2.39 2.65 1.52 1.13 0.54 0.34 0.45 0.63 0.75 1.25 2.55 1.62 1.17 1.30 1.56 1.62 1.57 1.16 0.75 0.58 0.62 0.75 0.72 1.13 1.31 1.20 1.05 1.28 1.97 1.99 1.58 1.18 0.91 1.00 0.90 0.85 0.89 0.98 0.88 0.79
0.21 0.28 0.30 0.23 0.70 0.52 0.37 0.38 0.37 0.23 0.09 0.15 0.05 0.08 0.19 0.19 0.65 0.33 0.31 0.30 0.22 0.23 0.28 0.34 0.34 0.41 0.38 0.43 0.87 1.10 1.25 1.23 1.25 1.27 1.26 1.48 1.35 1.31 1.61 1.61 1.94 2.92 1.73 1.73 1.28 2.09 1.84 1.64 3.12 3.00 4.38 5.60 4.92 5.08 4.57 4.21 3.15 1.97 1.76 1.21 0.87 0.66 0.57 0.58 0.84 1.28 2.06 1.62 1.20 1.76 1.40 1.33 1.70 1.31 0.95 1.08 0.64 0.43 0.59 0.78 1.35 1.32 1.26 1.37 1.98 1.80 1.98 1.59 1.53 1.22 0.83 0.58 0.52 0.85 0.88 0.77 0.80
0.24 0.29 0.36 0.32 0.44 0.50 0.55 0.38 0.37 0.20 0.44 0.23 0.16 0.15 0.42 0.20 0.83 0.56 0.33 0.19 0.30 0.22 0.24 0.38 0.40 0.54 0.74 0.58 0.68 0.82 1.37 1.59 1.03 1.11 0.96 1.26 1.27 1.56 1.77 1.55 1.50 1.53 1.37 1.19 1.76 1.58 1.31 1.90 2.92 3.62 3.32 4.74 4.50 4.79 3.91 2.47 2.54 2.30 1.68 1.42 1.47 1.24 1.02 0.83 1.10 1.49 1.76 1.33 2.33 1.49 1.06 1.57 0.91 0.78 0.50 1.33 1.31 0.69 0.87 1.07 0.96 1.10 0.97 1.37 1.47 2.36 1.54 2.01 1.72 1.27 1.08 1.04 1.06 0.90 1.00 0.89 1.20
0.67 0.49 0.43 0.47 0.47 0.59 0.34 0.66 0.32 0.42 0.63 0.53 0.39 0.26 0.48 0.88 0.50 0.40 0.52 0.30 0.26 0.22 0.50 0.75 0.73 1.11 1.39 1.53 1.53 1.55 1.57 1.14 1.22 1.43 1.16 2.37 4.07 4.03 2.49 2.30 2.16 1.75 1.33 2.03 2.17 1.85 1.32 2.22 1.96 2.12 2.45 2.47 2.48 3.53 3.13 3.25 2.80 2.45 2.18 2.00 1.51 1.21 1.25 0.78 0.73 0.75 2.17 1.54 1.73 1.45 2.37 1.58 1.00 0.66 1.54 1.09 0.74 0.75 0.78 0.80 0.78 0.80 0.97 1.19 1.25 1.46 1.47 1.10 1.60 1.18 1.20 1.21 1.08 1.01 0.94 0.98 0.63
0.54 0.62 0.63 0.48 0.88 1.05 0.99 0.86 0.12 0.23 0.48 0.49 0.42 0.50 0.87 0.87 0.36 0.41 0.48 0.63 0.38 0.32 0.49 0.63 0.79 0.45 0.50 0.60 0.41 0.43 0.77 1.09 1.63 1.56 1.25 1.17 2.38 2.40 2.51 2.11 1.71 1.73 2.76 2.94 2.13 2.15 1.73 1.42 1.01 1.86 2.38 2.30 2.45 3.21 3.00 2.63 2.24 2.03 1.76 2.25 2.37 2.48 1.57 0.80 0.67 1.26 2.63 1.98 1.67 1.18 1.89 1.69 1.53 1.05 1.44 1.13 0.88 0.77 0.98 1.25 1.71 2.08 1.80 1.62 1.15 0.88 0.91 1.08 1.17 1.03 1.39 1.82 1.37 1.12 1.38 0.50 0.66